This demonstration page uses our WeatherBlox Daily Observations layout. Learn more.

38.89511, -77.03637

Hourly Observations for March 13, 2015

Temp ( °F °C ) Dew Point ( °F °C ) Humidity (%) Winds ( mph kmh ) Pressure ( in mb ) Visibility ( mi km ) Precip ( " mm )
12:52 am 00:52 Mostly Cloudy 45 7 21 -6 39 39 Calm 30.59 1036 10 16.09344 0 0
1:52 am 01:52 Mostly Cloudy 45 7 23 -5 42 42 Calm 30.59 1036 10 16.09344 0 0
2:52 am 02:52 Mostly Cloudy 41 5 30 -1 66 66 Calm 30.59 1036 10 16.09344 0 0
3:52 am 03:52 Partly Cloudy 39 4 30 -1 70 70 Calm 30.59 1036 10 16.09344 0 0
4:52 am 04:52 Mostly Cloudy 39 4 27 -3 61 61 NE 3 6 30.62 1037 10 16.09344 0 0
5:52 am 05:52 Mostly Clear 39 4 23 -5 52 52 ENE 6 9 30.59 1036 10 16.09344 0 0
6:52 am 06:52 Mostly Cloudy 37 3 23 -5 56 56 Calm 30.62 1037 10 16.09344 0 0
7:52 am 07:52 Mostly Cloudy 37 3 21 -6 52 52 Calm 30.65 1038 10 16.09344 0 0
8:52 am 08:52 Mostly Cloudy 41 5 21 -6 45 45 Calm 30.62 1037 10 16.09344 0 0
9:52 am 09:52 Mostly Cloudy 45 7 10 -12 25 25 ESE 5 7 30.62 1037 10 16.09344 0 0
10:52 am 10:52 Mostly Cloudy 45 7 10 -12 25 25 SE 3 6 30.62 1037 10 16.09344 0 0
11:52 am 11:52 Mostly Cloudy 46 8 12 -11 25 25 S 5 7 30.59 1036 10 16.09344 0 0
12:52 pm 12:52 Mostly Cloudy 52 11 14 -10 22 22 S 6 9 30.56 1035 10 16.09344 0 0
1:52 pm 13:52 Mostly Cloudy 54 12 16 -9 22 22 S 8 13 30.53 1034 10 16.09344 0 0
2:52 pm 14:52 Mostly Cloudy 54 12 16 -9 22 22 S 7 11 30.5 1033 10 16.09344 0 0
3:21 pm 15:21 Cloudy 54 12 16 -9 22 22 SSW 7 11 30.48 1032 10 16.09344 0 0
3:52 pm 15:52 Cloudy 54 12 19 -7 26 26 S 8 13 30.48 1032 10 16.09344 0 0
4:52 pm 16:52 Cloudy 55 13 19 -7 24 24 S 10 17 30.42 1030 10 16.09344 0 0
5:52 pm 17:52 Cloudy 52 11 21 -6 30 30 ESE 7 11 30.42 1030 10 16.09344 0 0
6:52 pm 18:52 Cloudy 52 11 21 -6 30 30 SE 8 13 30.42 1030 10 16.09344 0 0
7:52 pm 19:52 Cloudy 52 11 21 -6 30 30 SE 6 9 30.42 1030 10 16.09344 0 0
8:52 pm 20:52 Cloudy 52 11 19 -7 28 28 SSE 6 9 30.42 1030 10 16.09344 0 0
9:52 pm 21:52 Cloudy 48 9 30 -1 50 50 S 7 11 30.39 1029 10 16.09344 0.001 0.001
10:52 pm 22:52 Cloudy 48 9 34 1 58 58 SW 10 17 30.39 1029 10 16.09344 0 0
11:35 pm 23:35 Cloudy with Light Rain 46 8 37 3 71 71 SSW 5 7 30.36 1028 10 16.09344 0.001 0.001
11:44 pm 23:44 Cloudy with Light Rain 45 7 39 4 81 81 SSW 6 9 30.36 1028 5 8.04672 0 0
11:52 pm 23:52 Cloudy with Light Rain 45 7 39 4 81 81 S 5 7 30.36 1028 4 6.437376 0.001 0.001

Powered by AerisWeather